Location: *
(49.2333°S, 177.3500°W)
Time: 06:42:54
(UTC+00:00)

Daily predictions for brighter satellites

Satellite Brightness Start Highest point End
(mag) Time Altitude Azimuth Time Altitude Azimuth Time Altitude Azimuth
H-2A R/B 4.3 12:00:08 10° S 12:02:15 19° SSW 12:02:15 19° SSW
Cosmos 2227 Rocket 4.0 12:11:04 10° SSW 12:13:23 25° SSW 12:13:23 25° SSW
USA 234 3.8 12:14:20 10° E 12:20:42 54° SSE 12:27:07 10° WSW
Cosmos 2297 Rocket 4.0 12:20:04 10° SSW 12:22:32 27° SSW 12:22:32 27° SSW
CZ-2D R/B 3.3 12:59:04 41° SSE 12:59:04 41° SSE 13:03:07 10° S
Cosmos 1980 Rocket 3.8 13:11:53 27° E 13:11:53 27° E 13:15:37 10° SE
Resurs 1-4 Rocket 3.2 13:17:47 41° S 13:17:47 41° S 13:21:19 10° S
CZ-2C R/B 4.5 13:12:02 10° SSE 13:14:38 32° SSE 13:14:38 32° SSE
Cosmos 1943 Rocket 4.3 13:21:18 16° SW 13:21:46 16° SW 13:25:14 10° S
Okean O Rocket 3.7 13:25:14 25° ESE 13:25:14 25° ESE 13:28:40 10° S
Cosmos 2154 Rocket 4.3 13:27:08 61° S 13:27:08 61° S 13:32:17 10° S
SL-16 R/B 4.1 13:41:40 19° ENE 13:42:46 20° E 13:46:51 10° SE
Cosmos 1727 Rocket 4.4 13:37:16 10° S 13:43:27 57° ESE 13:44:28 51° ENE
ARIANE 5 R/B 4.1 13:51:45 25° SSW 13:51:45 25° SSW 13:53:59 10° SSW
ARGOS Delta rocket 4.5 13:54:44 63° S 13:54:44 63° S 13:59:19 10° S
Lacrosse 4 Rocket 3.5 14:00:46 22° E 14:00:46 22° E 14:03:02 10° ESE
USA 234 3.1 13:56:57 10° NE 14:03:33 79° NW 14:10:12 10° WSW
ATLAS CENTAUR R/B 4.5 14:03:36 10° S 14:05:08 12° SSE 14:06:43 10° SE
Cosmos 2366 rocket 4.1 14:04:42 64° NE 14:05:33 72° E 14:11:58 10° SSE
Cosmos 2322 Rocket 3.5 14:04:32 29° NE 14:05:44 32° ENE 14:10:43 10° SE
Meteor 1-13 Rocket 4.4 14:02:53 10° SSW 14:08:14 67° SW 14:08:14 67° SW
ADEOS II 3.8 14:04:52 10° ENE 14:09:31 32° ESE 14:14:11 10° S
CZ-4B R/B 4.0 14:11:41 45° ESE 14:11:45 45° ESE 14:15:49 10° S
Intercosmos 25 4.2 14:13:27 70° ENE 14:13:39 71° E 14:17:57 10° SSE
Cosmos 1697 Rocket 2.8 14:16:13 64° SW 14:16:13 64° SW 14:21:41 10° SSE
Cosmos 1375 Rocket 4.4 14:17:22 66° NNE 14:18:03 72° ENE 14:24:23 10° SE
Cosmos 1633 4.3 14:19:53 33° SSE 14:19:53 33° SSE 14:22:06 10° SSE
Cosmos 1536 3.9 14:19:37 43° SE 14:19:37 43° SE 14:22:37 10° SSE
Cosmos 2218 Rocket 3.9 14:18:03 72° NNW 14:18:47 84° W 14:25:19 10° S
Cosmos 1814 Rocket 4.0 14:19:45 77° ENE 14:19:45 77° ENE 14:25:10 10° SSE
Cosmos 1339 Rocket 4.4 14:13:46 10° S 14:20:01 87° E 14:21:25 57° NNE
CZ-4B R/B 3.4 14:20:23 44° NNE 14:22:17 76° ESE 14:28:02 10° SSW
Cosmos 1125 Rocket 4.1 14:19:05 10° SSW 14:24:20 55° ESE 14:29:30 10° NE
Cosmos 1656 4.3 14:26:32 44° SW 14:26:34 44° SW 14:32:05 10° SSE
Cosmos 1892 Rocket 3.8 14:25:22 10° S 14:29:47 67° ESE 14:29:47 67° ESE
Cosmos 864 Rocket 4.3 14:30:33 65° NNW 14:31:31 81° W 14:37:50 10° S
Okean-O 4.1 14:28:12 10° NE 14:32:20 38° ESE 14:36:32 10° S
SL-8 Rocket 4.1 14:33:10 56° W 14:33:34 57° WSW 14:39:48 10° S
CZ-2D R/B 3.7 14:40:23 22° SW 14:40:23 22° SW 14:42:55 10° SSW
Meteor 2-19 Rocket 4.4 14:40:18 59° NW 14:41:23 72° WSW 14:47:36 10° S
Cosmos 2263 Rocket 2.3 14:38:18 10° SSW 14:44:05 78° ESE 14:49:46 10° NNE
Landsat 4 4.2 14:44:37 10° SSE 14:48:26 55° ENE 14:48:34 55° ENE
Cosmos 972 Rocket 3.7 14:45:18 10° SSW 14:50:25 73° WNW 14:50:54 67° NNW
IRS-1C Rocket 4.2 14:51:46 53° W 14:51:46 53° W 14:56:43 10° SSW
USA 161 4.4 14:50:04 10° SE 14:50:49 15° ESE 14:50:49 15° ESE
Cosmos 1544 Rocket 3.7 14:51:27 56° NNE 14:52:13 70° E 14:56:38 10° SSE
Cosmos 841 Rocket 3.5 14:52:36 50° N 14:54:00 79° ENE 14:59:22 10° SSE
Cosmos 1980 Rocket 2.4 14:53:39 49° W 14:54:32 54° SW 15:00:06 10° SSE
Cosmos 2360 Rocket 3.8 14:50:32 12° NNE 14:54:59 30° ENE 14:59:49 10° SE
Resurs 1-4 Rocket 4.0 14:58:52 15° SW 14:58:52 15° SW 15:00:17 10° SW
Okean O Rocket 2.6 15:02:42 32° SW 15:02:42 32° SW 15:05:28 10° SSW
Cosmos 1821 Rocket 4.4 14:56:22 13° N 15:01:56 62° E 15:08:09 10° SSE
SL-24 R/B 4.4 14:58:49 10° SSE 15:03:21 73° ENE 15:05:21 35° N
Meteor 1-11 Rocket 4.1 15:03:25 44° WNW 15:04:32 49° WSW 15:10:12 10° S
ERBS 3.1 15:05:10 47° SSW 15:05:10 47° SSW 15:08:31 10° SE
Okean 2 3.8 15:06:42 10° SSW 15:10:16 46° WSW 15:10:16 46° WSW
Cosmos 1900 4.4 15:11:42 48° WNW 15:13:01 70° SW 15:18:09 10° SE
Cosmos 1809 Rocket 4.4 15:12:50 25° NNW 15:16:39 81° W 15:22:59 10° S
Cosmos 332 Rocket 4.0 15:19:08 26° N 15:21:47 70° ENE 15:26:39 10° SSE
PSLV R/B 3.4 15:20:03 31° N 15:21:57 65° WNW 15:26:14 10° SSW
ADEOS Rocket 2.8 15:18:53 22° N 15:22:25 53° W 15:27:53 10° SSW
Cosmos 1000 Rocket 4.5 15:16:33 10° SSW 15:22:47 63° W 15:28:59 10° N
Meteor 2-4 Rocket 4.3 15:18:39 10° SSW 15:23:32 33° W 15:23:50 33° W
SL-16 R/B 2.2 15:23:32 33° NW 15:26:15 75° WSW 15:32:01 10° SSE
Meteor 1-31 Rocket 3.3 15:22:38 10° NNE 15:26:36 64° ESE 15:30:36 10° S
Cosmos 2239 Rocket 4.5 15:28:13 15° NNW 15:33:40 78° W 15:40:07 10° S
CZ-4B R/B 3.9 15:30:28 10° NNE 15:34:13 74° ESE 15:38:08 10° S
BREEZE-M DEB (TANK) 4.3 15:35:43 12° N 15:35:43 12° N 15:36:17 10° NNE
NOAA 6 4.3 15:30:46 10° NNE 15:35:57 75° ESE 15:41:11 10° SSW
Cosmos 1975 2.9 15:33:09 19° N 15:36:02 85° ENE 15:40:15 10° S
SL-08 R/B 4.0 15:32:59 10° S 15:37:19 37° WSW 15:38:43 30° WNW
Lacrosse 4 Rocket 1.9 15:37:07 34° W 15:38:13 42° SW 15:42:09 10° SSE
Cosmos 1626 Rocket 3.6 15:35:49 10° SSW 15:40:22 65° W 15:44:50 10° N
Cosmos 1844 Rocket 3.5 15:35:26 10° SSW 15:41:05 55° SE 15:46:39 10° NE
Cosmos 1763 Rocket 4.1 15:41:14 27° WNW 15:43:29 40° WSW 15:48:32 10° SSE
GENESIS II 4.3 15:40:58 14° SW 15:44:00 46° WNW 15:47:45 10° NNE
Cosmos 1066 Rocket 4.1 15:39:28 10° SSW 15:44:57 88° WNW 15:50:25 10° N
ATLAS CENTAUR R/B 3.3 15:41:33 10° SSW 15:45:22 32° SE 15:49:27 10° ENE
Cosmos 2123 Rocket 3.9 15:39:53 10° SSW 15:46:15 73° W 15:52:28 10° N
CZ-4B R/B 4.4 15:47:53 21° WSW 15:47:53 21° WSW 15:50:29 10° SW
Cosmos 1500 3.3 15:43:34 11° N 15:47:11 79° E 15:51:04 10° SSE
USA 234 4.0 15:41:49 10° N 15:47:14 27° NW 15:52:41 10° WSW
Abrixas rocket 4.4 15:49:31 14° N 15:49:31 14° N 15:50:27 10° N
ADEOS II 2.4 15:44:01 10° N 15:49:05 45° W 15:54:13 10° SSW
Meteor 2-16 Rocket 4.4 15:43:27 11° NNW 15:49:29 70° WSW 15:55:41 10° S
Cosmos 2322 Rocket 2.5 15:46:22 24° WNW 15:49:35 51° SW 15:55:10 10° SSE
Cosmos 1455 Rocket 3.6 15:49:31 26° NW 15:51:23 40° WSW 15:55:35 10° S
SOZ 3.7 15:51:16 45° W 15:51:52 79° SSW 15:54:32 10° ESE
SL-16 R/B 2.5 15:47:11 10° SSE 15:53:27 83° WSW 15:59:41 10° NNW
Meteor PRIRODA 4.0 15:51:03 15° NNW 15:53:52 41° W 15:57:28 10° SSW
SL-24 R/B 4.1 15:52:48 10° NNE 15:56:45 78° ESE 16:01:16 10° S
Cosmos 372 Rocket 4.3 15:53:07 10° SW 15:58:02 42° WNW 16:02:50 10° N
Cosmos 1953 Rocket 4.5 15:54:43 10° S 15:59:05 52° ESE 16:03:24 10° NNE
Blok-ML 4.4 15:59:46 11° ESE 15:59:46 11° ESE 15:59:57 10° ESE
COSMOS 2455 4.2 15:54:44 10° N 16:00:15 39° ENE 16:05:49 10° SE
UNK 3.8 15:56:58 10° S 16:01:37 59° WSW 16:05:56 11° NNW
Geosat 4.1 15:58:11 10° NNE 16:03:15 85° ESE 16:08:23 10° SSW
COSMOS 2428 3.7 15:58:13 10° N 16:03:41 48° ENE 16:09:12 10° SE
Cosmos 1602 Rocket 4.1 16:00:10 10° SSW 16:04:25 38° W 16:08:36 10° NNW
Cosmos 1125 Rocket 4.5 16:01:49 10° SW 16:06:03 25° W 16:10:15 10° NNW
Cosmos 1743 3.1 16:02:12 10° N 16:06:07 70° E 16:10:07 10° SSE
Okean-O 3.5 16:05:04 10° NNW 16:08:55 28° W 16:12:50 10° SW
MOS 1 Rocket 3.8 16:04:21 10° N 16:09:43 53° W 16:15:05 10° SSW
Cosmos 1758 Rocket 4.2 16:07:53 10° S 16:12:27 63° ESE 16:16:54 10° NNE
Aureole 1 Rocket 3.3 16:09:06 10° NNW 16:13:00 75° ENE 16:18:12 10° SSE
COS B Rocket 3.2 16:14:34 10° SSW 16:17:12 31° W 16:18:55 16° NW
COBE Rocket 4.2 16:14:19 10° NNW 16:18:49 42° W 16:23:28 10° SSW
CZ-3 R/B 4.4 16:15:41 10° NNW 16:21:46 13° N 16:25:38 10° NNE
USA 161 3.2 16:20:51 10° SW 16:21:51 13° WSW 16:21:51 13° WSW
ATLAS 3B R/B 3.3 16:15:59 10° NNW 16:22:12 54° ENE 16:28:43 10° SE
CZ-4 R/B 3.1 16:18:40 10° NE 16:22:40 41° ESE 16:26:44 10° S
Cosmos 1538 Rocket 4.2 16:18:12 10° NNW 16:23:27 81° ENE 16:28:48 10° SSE
Ariane Rocket 3.0 16:20:31 10° N 16:25:35 62° WNW 16:30:44 10° SSW
Blok-L 4.1 16:24:23 10° SW 16:27:15 87° NW 16:39:33 10° NE
Cosmos 2263 Rocket 3.4 16:23:22 10° SW 16:27:20 20° W 16:31:17 10° NW
Cosmos 540 Rocket 3.9 16:22:32 10° NW 16:27:26 45° WSW 16:32:29 10° SSE
Cosmos 405 Rocket 3.4 16:25:29 10° S 16:29:34 62° ESE 16:33:30 10° NNE
Cosmos 1459 Rocket 4.4 16:24:12 10° N 16:30:20 69° E 16:36:28 10° SSE
Cosmos 1340 3.6 16:27:33 10° SSW 16:30:53 27° W 16:34:11 10° NNW
Meteor 1-21 4.2 16:26:12 10° SSW 16:31:51 67° W 16:37:28 10° N
Cosmos 1606 Rocket 3.6 16:28:16 10° N 16:32:39 85° E 16:37:07 10° S
YAOGAN 1 4.3 16:29:17 10° NE 16:33:22 39° ESE 16:37:30 10° S
Cosmos 909 Rocket 4.4 16:26:59 10° SW 16:33:46 47° WNW 16:39:45 10° N
CZ-2C R/B 3.9 16:30:43 10° SSE 16:35:16 75° ENE 16:39:44 10° N
EO 1 Del DPAF 3.6 16:32:02 10° S 16:35:55 50° WSW 16:39:44 10° NW
Iridium 4 Rocket 4.3 16:31:01 10° S 16:37:03 68° E 16:42:46 10° NNE
Cosmos 2219 Rocket 3.3 16:31:42 10° N 16:37:05 47° ENE 16:42:31 10° SE
Cosmos 773 Rocket 4.4 16:32:23 10° N 16:37:30 69° ENE 16:42:42 10° SSE
Cosmos 2360 Rocket 2.5 16:33:11 10° NW 16:38:42 53° SW 16:44:17 10° SSE
Cosmos 1980 Rocket 4.1 16:36:39 10° WSW 16:39:54 15° SSW 16:43:10 10° S
ERBS 4.2 16:39:29 10° WSW 16:42:27 23° S 16:45:25 10° SE
Cosmos 1726 Rocket 3.6 16:38:24 10° N 16:42:46 89° W 16:47:13 10° S
Cosmos 2278 Rocket 2.5 16:37:24 10° SSW 16:43:10 76° ESE 16:48:53 10° NNE
APEX 3.5 16:40:04 10° SW 16:43:38 52° WNW 16:48:07 10° NNE
Cosmos 1842 3.3 16:41:16 10° SSW 16:45:18 65° W 16:49:16 10° N
CSL-04 Debris 4.2 16:41:16 10° N 16:46:39 64° WNW 16:52:07 10° SSW
Cosmos 371 Rocket 4.2 16:44:50 10° WNW 16:49:15 33° SW 16:53:40 10° S
Cosmos 1818 4.1 16:45:19 10° SW 16:50:17 38° WNW 16:55:14 10° N
Cosmos 2322 4.1 16:45:41 10° NW 16:51:12 47° SW 16:56:48 10° SSE
CSL-04 Rocket 3.9 16:46:18 10° N 16:51:37 50° W 16:57:05 10° SSW
CZ-2C R/B 3.5 16:46:56 10° NE 16:51:42 52° ESE 16:56:41 10° S
BREEZE-M DEB (TANK) 3.1 16:46:14 10° W 16:54:02 88° NNE 16:56:47 10° E
